User: anonymous   Login
Location: Bonny Doon Airfield
(37.0704°N, 122.1252°W)
Time: 03:34:02
(UTC-08:00)
Language:

BREEZE M DEB (TANK) - Orbit

View from above orbital plane
View from above orbital plane
View from above satellite
View from above satellite

Ground track
Ground track

The orbit data is extracted from the following two-line orbital elements,

1 33437U 08057B   15028.12037506  .00002102  00000-0  66378-3 0  1574
2 33437 049.5606 269.5623 5002803 163.8499 350.1396 05.56643937125152
Epoch (UTC): 28 January 2015 02:53:20
Eccentricity: 0.5002803
inclination: 49.5606°
perigee height: 342 km
apogee height: 13799 km
right ascension of ascending node: 269.5623°
argument of perigee: 163.8499°
revolutions per day: 5.56643937
mean anomaly at epoch: 350.1396°
orbit number at epoch: 12515

The dashed part of the orbit path shows where the satellite is in the earth's shadow,  

DLR